AIC213 VIDP-VILH

Flight info

Callsign AIC213
Flight time 1h 8m
Altitude 35000
Route DCT SP W39 LELAX/N0428F340 W39 LEH DCT
Aircraft A320/M-SDE3FGHIRWY/LB1

Departure

Time 2026-04-22 16:58
Airport Indira Gandhi International Airport (VIDP)

Arrival

Time 2026-04-22 18:06
Airport Leh Kushok Bakula Rimpochee Airport (VILH)
Time Latitude Longitude Altitude Speed Heading
2026-04-22 16:32 28.54982 77.09017 750 ft 0 kts 240°
2026-04-22 16:51 28.54994 77.09040 747 ft 4 kts 231°
2026-04-22 16:51 28.55013 77.09060 750 ft 4 kts 201°
2026-04-22 16:51 28.55033 77.09061 748 ft 1 kts 151°
2026-04-22 16:54 28.55029 77.09065 750 ft 6 kts 147°
2026-04-22 16:55 28.54944 77.09138 749 ft 23 kts 137°
2026-04-22 16:55 28.54789 77.09280 751 ft 34 kts 117°
2026-04-22 16:55 28.54718 77.09564 752 ft 39 kts 105°
2026-04-22 16:55 28.54649 77.09859 750 ft 38 kts 105°
2026-04-22 16:56 28.54581 77.10150 748 ft 38 kts 104°
2026-04-22 16:56 28.54517 77.10434 751 ft 37 kts 109°
2026-04-22 16:56 28.54458 77.10591 751 ft 0 kts 144°
2026-04-22 16:56 28.54428 77.10599 751 ft 12 kts 172°
2026-04-22 16:57 28.54311 77.10565 753 ft 23 kts 196°
2026-04-22 16:57 28.54219 77.10472 750 ft 11 kts 281°
2026-04-22 16:57 28.54243 77.10404 753 ft 10 kts 288°
2026-04-22 16:57 28.54299 77.10119 752 ft 81 kts 285°
2026-04-22 16:58 28.54422 77.09556 750 ft 138 kts 287°
2026-04-22 16:58 28.54821 77.07988 1683 ft 150 kts 287°
2026-04-22 16:58 28.55008 77.06840 2522 ft 153 kts 262°
2026-04-22 16:58 28.54762 77.05577 3243 ft 172 kts 256°
2026-04-22 16:59 28.54454 77.04171 3920 ft 195 kts 256°
2026-04-22 16:59 28.54114 77.02590 4032 ft 211 kts 256°
2026-04-22 16:59 28.53781 77.00960 4020 ft 211 kts 257°
2026-04-22 16:59 28.53462 76.99349 4018 ft 211 kts 257°
2026-04-22 17:00 28.53142 76.97697 4007 ft 224 kts 258°
2026-04-22 17:00 28.52411 76.93824 4018 ft 264 kts 258°
2026-04-22 17:00 28.52028 76.91776 4017 ft 264 kts 258°
2026-04-22 17:01 28.51648 76.89731 4017 ft 264 kts 258°
2026-04-22 17:01 28.51307 76.87679 4016 ft 264 kts 266°
2026-04-22 17:01 28.51471 76.85637 4017 ft 264 kts 284°
2026-04-22 17:01 28.51926 76.83611 4004 ft 264 kts 284°
2026-04-22 17:02 28.52374 76.81590 4016 ft 264 kts 284°
2026-04-22 17:02 28.52816 76.79561 4016 ft 264 kts 284°
2026-04-22 17:02 28.53255 76.77541 4017 ft 264 kts 284°
2026-04-22 17:02 28.53696 76.75513 4017 ft 264 kts 284°
2026-04-22 17:03 28.54137 76.73482 4018 ft 264 kts 284°
2026-04-22 17:03 28.54656 76.71486 4011 ft 264 kts 293°
2026-04-22 17:03 28.55565 76.69696 4004 ft 264 kts 305°
2026-04-22 17:03 28.56627 76.67989 4004 ft 264 kts 305°
2026-04-22 17:04 28.57682 76.66277 4014 ft 264 kts 304°
2026-04-22 17:04 28.58740 76.64558 4014 ft 264 kts 304°
2026-04-22 17:04 28.59796 76.62843 4005 ft 264 kts 304°
2026-04-22 17:04 28.60851 76.61126 4010 ft 264 kts 304°
2026-04-22 17:05 28.61891 76.59433 4004 ft 264 kts 304°
2026-04-22 17:05 28.62944 76.57718 4012 ft 264 kts 304°
2026-04-22 17:05 28.63999 76.56004 4001 ft 264 kts 304°
2026-04-22 17:05 28.65054 76.54293 4001 ft 264 kts 304°
2026-04-22 17:06 28.66107 76.52576 4005 ft 264 kts 304°
2026-04-22 17:06 28.67162 76.50858 3998 ft 264 kts 304°
2026-04-22 17:06 28.68215 76.49139 4008 ft 264 kts 304°
2026-04-22 17:06 28.69270 76.47420 4010 ft 264 kts 304°
2026-04-22 17:07 28.70310 76.45723 4006 ft 264 kts 304°
2026-04-22 17:07 28.71362 76.44006 4002 ft 264 kts 304°
2026-04-22 17:07 28.72411 76.42288 4029 ft 264 kts 304°
2026-04-22 17:07 28.73458 76.40573 4528 ft 264 kts 304°
2026-04-22 17:08 28.74517 76.38842 5495 ft 268 kts 304°
2026-04-22 17:08 28.75594 76.37083 6468 ft 272 kts 304°
2026-04-22 17:08 28.76683 76.35305 7413 ft 276 kts 304°
2026-04-22 17:08 28.77791 76.33492 8339 ft 280 kts 304°
2026-04-22 17:09 28.78911 76.31655 9237 ft 284 kts 304°
2026-04-22 17:09 28.80048 76.29794 10113 ft 288 kts 304°
2026-04-22 17:09 28.80822 76.28526 10503 ft 299 kts 304°
2026-04-22 17:09 28.82454 76.25844 11152 ft 322 kts 304°
2026-04-22 17:10 28.83762 76.23692 11593 ft 339 kts 304°
2026-04-22 17:10 28.85143 76.21423 11979 ft 356 kts 304°
2026-04-22 17:10 28.86594 76.19042 12338 ft 373 kts 304°
2026-04-22 17:10 28.88104 76.16562 12699 ft 387 kts 304°
2026-04-22 17:11 28.89656 76.14011 13303 ft 393 kts 304°
2026-04-22 17:11 28.91225 76.11427 13979 ft 397 kts 304°
2026-04-22 17:11 28.92804 76.08826 14643 ft 400 kts 304°
2026-04-22 17:11 28.94382 76.06227 15281 ft 404 kts 304°
2026-04-22 17:12 28.95995 76.03572 15894 ft 407 kts 304°
2026-04-22 17:12 28.97615 76.00901 16505 ft 411 kts 304°
2026-04-22 17:12 28.99250 75.98201 17081 ft 414 kts 304°
2026-04-22 17:12 29.00899 75.95475 17632 ft 418 kts 304°
2026-04-22 17:13 29.02556 75.92732 18162 ft 421 kts 304°
2026-04-22 17:13 29.04227 75.89964 18671 ft 424 kts 304°
2026-04-22 17:13 29.05892 75.87208 19159 ft 427 kts 304°
2026-04-22 17:13 29.07589 75.84400 19631 ft 430 kts 304°
2026-04-22 17:14 29.09296 75.81571 20083 ft 433 kts 304°
2026-04-22 17:14 29.11009 75.78729 20517 ft 436 kts 304°
2026-04-22 17:14 29.12737 75.75859 20942 ft 439 kts 304°
2026-04-22 17:14 29.14474 75.72972 21334 ft 441 kts 304°
2026-04-22 17:15 29.15645 75.71063 21591 ft 443 kts 307°
2026-04-22 17:15 29.18628 75.67804 22094 ft 446 kts 326°
2026-04-22 17:15 29.21392 75.66178 22454 ft 449 kts 340°
2026-04-22 17:15 29.24396 75.65364 22793 ft 451 kts 354°
2026-04-22 17:16 29.27544 75.65411 23128 ft 454 kts
2026-04-22 17:16 29.30603 75.66347 23450 ft 457 kts 22°
2026-04-22 17:16 29.33377 75.68122 23764 ft 459 kts 37°
2026-04-22 17:16 29.35691 75.70644 24062 ft 462 kts 51°
2026-04-22 17:17 29.37400 75.73768 24351 ft 464 kts 65°
2026-04-22 17:17 29.38703 75.77164 24610 ft 466 kts 66°
2026-04-22 17:17 29.39999 75.80594 24868 ft 468 kts 66°
2026-04-22 17:17 29.41294 75.84035 25114 ft 470 kts 66°
2026-04-22 17:18 29.42574 75.87448 25349 ft 472 kts 66°
2026-04-22 17:18 29.46827 75.98945 25784 ft 459 kts 69°
2026-04-22 17:18 29.61423 76.51481 26067 ft 422 kts 77°
2026-04-22 17:18 29.65587 76.80007 26151 ft 426 kts 88°
2026-04-22 17:19 29.67585 76.86426 26403 ft 442 kts 50°
2026-04-22 17:19 29.71654 76.91857 26652 ft 457 kts 49°
2026-04-22 17:20 29.75875 76.97473 26904 ft 468 kts 49°
2026-04-22 17:20 29.80177 77.03197 27153 ft 475 kts 49°
2026-04-22 17:21 29.81609 77.05103 27236 ft 477 kts 49°
2026-04-22 17:21 29.85965 77.10903 27551 ft 479 kts 49°
2026-04-22 17:22 29.90201 77.16821 27950 ft 478 kts 58°
2026-04-22 17:22 29.91686 77.20234 28176 ft 477 kts 67°
2026-04-22 17:22 29.94251 77.27302 28579 ft 477 kts 67°
2026-04-22 17:23 29.95511 77.30787 28776 ft 476 kts 67°
2026-04-22 17:23 29.98745 77.37418 29222 ft 475 kts 49°
2026-04-22 17:23 30.01120 77.40059 29444 ft 474 kts 37°
2026-04-22 17:24 30.03871 77.42076 29661 ft 473 kts 26°
2026-04-22 17:24 30.06931 77.43432 29878 ft 472 kts 14°
2026-04-22 17:24 30.10166 77.44058 30096 ft 471 kts
2026-04-22 17:24 30.13436 77.44322 30296 ft 471 kts
2026-04-22 17:25 30.16716 77.44591 30500 ft 471 kts
2026-04-22 17:25 30.19985 77.44865 30711 ft 471 kts
2026-04-22 17:25 30.23250 77.45141 30919 ft 471 kts
2026-04-22 17:25 30.26514 77.45419 31133 ft 470 kts
2026-04-22 17:26 30.29779 77.45695 31347 ft 470 kts
2026-04-22 17:26 30.33002 77.45965 31551 ft 469 kts
2026-04-22 17:26 30.36260 77.46239 31764 ft 469 kts
2026-04-22 17:26 30.39517 77.46513 31972 ft 469 kts
2026-04-22 17:27 30.42784 77.46789 32175 ft 469 kts
2026-04-22 17:27 30.46046 77.47064 32376 ft 469 kts
2026-04-22 17:27 30.49303 77.47338 32572 ft 469 kts
2026-04-22 17:27 30.52556 77.47609 32787 ft 468 kts
2026-04-22 17:28 30.55769 77.47877 32972 ft 469 kts
2026-04-22 17:28 30.59028 77.48152 33133 ft 470 kts
2026-04-22 17:28 30.62290 77.48431 33328 ft 470 kts
2026-04-22 17:28 30.65559 77.48711 33489 ft 471 kts
2026-04-22 17:29 30.68832 77.48989 33625 ft 473 kts
2026-04-22 17:29 30.72123 77.49267 33788 ft 474 kts
2026-04-22 17:29 30.75417 77.49546 33958 ft 474 kts
2026-04-22 17:29 30.78717 77.49826 34123 ft 475 kts
2026-04-22 17:30 30.82017 77.50104 34261 ft 476 kts
2026-04-22 17:30 30.85288 77.50378 34383 ft 477 kts
2026-04-22 17:30 30.88594 77.50658 34510 ft 477 kts
2026-04-22 17:30 30.91941 77.50943 34652 ft 477 kts
2026-04-22 17:31 30.95253 77.51226 34795 ft 477 kts
2026-04-22 17:31 30.98526 77.51507 34961 ft 476 kts
2026-04-22 17:31 31.05150 77.52073 35012 ft 476 kts
2026-04-22 17:32 31.11761 77.52637 35009 ft 474 kts
2026-04-22 17:32 31.18351 77.53203 35012 ft 474 kts
2026-04-22 17:33 31.24918 77.53747 35011 ft 477 kts
2026-04-22 17:33 31.31522 77.54277 35036 ft 470 kts
2026-04-22 17:34 31.38050 77.54803 35034 ft 468 kts
2026-04-22 17:34 31.44565 77.55339 35020 ft 468 kts
2026-04-22 17:35 31.51048 77.55878 35011 ft 470 kts
2026-04-22 17:35 31.57624 77.56422 34979 ft 475 kts
2026-04-22 17:36 31.64232 77.56967 34972 ft 480 kts
2026-04-22 17:36 31.70912 77.57511 35012 ft 481 kts
2026-04-22 17:37 31.77613 77.58065 35010 ft 483 kts
2026-04-22 17:37 31.84306 77.58621 35008 ft 482 kts
2026-04-22 17:38 31.91001 77.59172 35010 ft 481 kts
2026-04-22 17:38 31.97648 77.59721 35019 ft 482 kts
2026-04-22 17:39 32.04346 77.60280 35010 ft 481 kts
2026-04-22 17:40 32.14392 77.61126 35010 ft 481 kts
2026-04-22 17:40 32.21025 77.61678 35013 ft 480 kts
2026-04-22 17:41 32.27696 77.62228 35007 ft 480 kts
2026-04-22 17:41 32.34365 77.62794 35009 ft 481 kts
2026-04-22 17:41 32.37719 77.63074 34810 ft 484 kts
2026-04-22 17:42 32.41074 77.63317 34957 ft 481 kts
2026-04-22 17:42 32.47726 77.62714 35010 ft 480 kts 350°
2026-04-22 17:43 32.54257 77.61189 35009 ft 480 kts 348°
2026-04-22 17:43 32.60824 77.59712 35010 ft 480 kts 350°
2026-04-22 17:44 32.67451 77.58548 35009 ft 480 kts 352°
2026-04-22 17:44 32.74079 77.57497 35012 ft 480 kts 352°
2026-04-22 17:45 32.80678 77.56390 35008 ft 481 kts 351°
2026-04-22 17:45 32.87331 77.55220 35008 ft 483 kts 351°
2026-04-22 17:46 32.93966 77.54042 35009 ft 485 kts 351°
2026-04-22 17:46 33.00662 77.52859 34467 ft 488 kts 351°
2026-04-22 17:46 33.04022 77.52270 33553 ft 488 kts 351°
2026-04-22 17:47 33.07399 77.51680 32479 ft 490 kts 351°
2026-04-22 17:47 33.10783 77.51087 31891 ft 493 kts 351°
2026-04-22 17:47 33.14181 77.50490 31647 ft 493 kts 351°
2026-04-22 17:48 33.19811 77.49500 31810 ft 491 kts 351°
2026-04-22 17:48 33.24321 77.48707 31974 ft 489 kts 351°
2026-04-22 17:48 33.27654 77.48118 32099 ft 488 kts 351°
2026-04-22 17:48 33.45157 77.44883 31933 ft 460 kts 353°
2026-04-22 17:49 33.48347 77.44418 32050 ft 461 kts 352°
2026-04-22 17:49 33.51535 77.43922 32176 ft 462 kts 352°
2026-04-22 17:49 33.54740 77.43384 32302 ft 464 kts 351°
2026-04-22 17:49 33.57953 77.42816 32427 ft 467 kts 351°
2026-04-22 17:50 33.61132 77.42238 32551 ft 469 kts 351°
2026-04-22 17:50 33.64325 77.41652 33198 ft 455 kts 351°
2026-04-22 17:50 33.67384 77.41093 33749 ft 431 kts 351°
2026-04-22 17:50 33.70252 77.40574 34225 ft 403 kts 351°
2026-04-22 17:51 33.72963 77.40089 34703 ft 388 kts 351°
2026-04-22 17:51 33.75621 77.39615 35013 ft 386 kts 351°
2026-04-22 17:51 33.78280 77.39144 35123 ft 389 kts 351°
2026-04-22 17:51 33.80989 77.38663 34920 ft 393 kts 351°
2026-04-22 17:52 33.83688 77.38186 34602 ft 391 kts 351°
2026-04-22 17:52 33.86336 77.37716 34179 ft 388 kts 351°
2026-04-22 17:52 33.88994 77.37239 33807 ft 383 kts 351°
2026-04-22 17:52 33.91617 77.36766 33418 ft 379 kts 351°
2026-04-22 17:53 33.94205 77.36299 32636 ft 372 kts 350°
2026-04-22 17:53 33.96730 77.35847 32506 ft 360 kts 350°
2026-04-22 17:53 33.99183 77.35412 32217 ft 354 kts 350°
2026-04-22 17:53 34.01604 77.34982 31858 ft 350 kts 350°
2026-04-22 17:54 34.04016 77.34679 31454 ft 349 kts
2026-04-22 17:54 34.06349 77.35405 31088 ft 347 kts 28°
2026-04-22 17:54 34.08194 77.37237 30677 ft 345 kts 54°
2026-04-22 17:54 34.09271 77.39811 30170 ft 344 kts 74°
2026-04-22 17:55 34.09593 77.41682 29790 ft 344 kts 86°
2026-04-22 17:55 34.09314 77.45443 29157 ft 338 kts 109°
2026-04-22 17:55 34.08361 77.48009 28702 ft 334 kts 121°
2026-04-22 17:55 34.07245 77.50467 28310 ft 333 kts 121°
2026-04-22 17:56 34.06133 77.52927 28238 ft 333 kts 121°
2026-04-22 17:56 34.03914 77.57846 28256 ft 333 kts 120°
2026-04-22 17:57 34.01689 77.62760 28257 ft 333 kts 121°
2026-04-22 17:57 33.99483 77.67673 28259 ft 333 kts 116°
2026-04-22 17:57 33.98968 77.70354 28259 ft 335 kts 87°
2026-04-22 17:58 33.99557 77.73045 28257 ft 336 kts 58°
2026-04-22 17:58 34.01126 77.75088 28257 ft 333 kts 28°
2026-04-22 17:58 34.03285 77.75981 28244 ft 328 kts
2026-04-22 17:58 34.05512 77.75654 27588 ft 331 kts 334°
2026-04-22 17:59 34.07402 77.74079 26709 ft 335 kts 309°
2026-04-22 17:59 34.08860 77.71831 25833 ft 346 kts 305°
2026-04-22 17:59 34.10339 77.69482 24957 ft 357 kts 304°
2026-04-22 17:59 34.11866 77.67051 24104 ft 368 kts 305°
2026-04-22 18:00 34.12900 77.65400 23443 ft 375 kts 304°
2026-04-22 18:00 34.15064 77.61935 22029 ft 390 kts 304°
2026-04-22 18:00 34.16022 77.60082 21342 ft 394 kts 292°
2026-04-22 18:00 34.17190 77.55876 19993 ft 404 kts 286°
2026-04-22 18:01 34.17982 77.52579 19155 ft 413 kts 281°
2026-04-22 18:01 34.18015 77.49090 18050 ft 422 kts 258°
2026-04-22 18:01 34.17412 77.46846 17300 ft 427 kts 244°
2026-04-22 18:01 34.15626 77.44007 16449 ft 419 kts 220°
2026-04-22 18:02 34.13155 77.42975 16927 ft 347 kts 167°
2026-04-22 18:02 34.11505 77.44445 18285 ft 263 kts 119°
2026-04-22 18:02 34.11424 77.46358 19133 ft 220 kts 64°
2026-04-22 18:02 34.11906 77.48100 18375 ft 239 kts 94°
2026-04-22 18:03 34.11158 77.49962 16656 ft 263 kts 126°
2026-04-22 18:03 34.10179 77.51833 15339 ft 259 kts 119°
2026-04-22 18:03 34.09217 77.53650 14008 ft 255 kts 123°
2026-04-22 18:03 34.08452 77.55478 13402 ft 229 kts 104°
2026-04-22 18:04 34.08578 77.57331 12721 ft 224 kts 70°
2026-04-22 18:04 34.09448 77.58846 12236 ft 222 kts 44°
2026-04-22 18:04 34.10619 77.59988 12477 ft 210 kts 31°
2026-04-22 18:04 34.11886 77.60625 12657 ft 179 kts
2026-04-22 18:05 34.13039 77.60370 12754 ft 173 kts 332°
2026-04-22 18:05 34.14064 77.59602 12757 ft 174 kts 327°
2026-04-22 18:05 34.14916 77.58649 12693 ft 166 kts 274°
2026-04-22 18:05 34.14533 77.57407 11869 ft 173 kts 240°
2026-04-22 18:06 34.14006 77.56061 11002 ft 174 kts 240°
2026-04-22 18:06 34.13664 77.54789 10769 ft 145 kts 250°
2026-04-22 18:06 34.13404 77.53963 10653 ft 62 kts 252°
2026-04-22 18:06 34.13358 77.53785 10649 ft 3 kts 252°
2026-04-22 18:07 34.13357 77.53768 10645 ft 1 kts 289°
2026-04-22 18:07 34.13397 77.53776 10646 ft 5 kts 44°
2026-04-22 18:07 34.13400 77.53786 10642 ft 2 kts 66°
2026-04-22 18:07 34.13431 77.53845 10656 ft 10 kts 38°
2026-04-22 18:08 34.13480 77.53851 10657 ft 6 kts
2026-04-22 18:08 34.13506 77.53893 10652 ft 11 kts 65°
2026-04-22 18:08 34.13558 77.54042 10666 ft 23 kts 62°
2026-04-22 18:08 34.13620 77.54169 10687 ft 11 kts 65°
2026-04-22 18:09 34.13635 77.54208 10691 ft 1 kts 64°
2026-04-22 18:09 34.13662 77.54277 10699 ft 19 kts 72°
2026-04-22 18:09 34.13724 77.54487 10720 ft 32 kts 60°
2026-04-22 18:09 34.13762 77.54668 10738 ft 13 kts 36°
2026-04-22 18:10 34.13799 77.54697 10743 ft 1 kts
2026-04-22 18:10 34.13807 77.54696 10744 ft 6 kts 354°
2026-04-22 18:11 34.13926 77.54643 10763 ft 19 kts 339°
2026-04-22 18:11 34.13934 77.54640 10765 ft 0 kts 340°
2026-04-22 18:11 34.13971 77.54879 10785 ft 0 kts 329°